Theta_e
295 296 294 295 294 294 294 293 293 293 294 294 291 290 294 293 283 284 290 295 294 297 299 300 301 303 303 303 304 306 307 307 308 308 308 308 309 310 310 310 310 309 310 311 312 314 315 316 316 317 318 318 317 319 320 319 319 317 318 318 316 317 318 318 317 317 317 317 318 316 317 317 318 319 320 318 317 318 318 318 318 319 319 318 317 317 316
295 292 293 293 293 293 293 292 293 293 293 292 292 292 294 296 293 295 295 294 292 294 294 295 296 297 297 297 297 298 298 300 301 301 302 305 307 307 308 307 305 308 310 311 311 313 313 316 318 319 317 317 318 318 318 320 319 319 319 318 317 317 317 317 317 317 317 318 319 318 317 317 317 317 317 318 316 316 317 317 316 317 318 318 317 316 316
290 293 292 292 292 293 291 292 293 293 293 292 292 291 291 293 294 295 293 290 289 295 296 295 296 296 295 293 292 293 294 296 295 295 295 296 297 299 300 301 301 301 300 301 302 303 306 311 312 314 315 316 318 318 317 318 320 320 321 318 317 318 318 319 318 316 316 317 318 318 317 317 318 318 318 318 316 315 315 316 318 318 319 317 316 315 315
283 292 292 291 292 291 290 290 291 291 290 287 289 286 292 290 288 291 291 288 287 294 296 295 294 294 292 291 291 291 292 293 294 293 294 294 295 296 296 296 297 298 299 299 299 300 301 302 302 305 311 314 314 316 317 318 319 319 319 318 318 318 318 317 317 317 316 316 317 317 317 317 317 318 316 316 315 316 315 316 317 318 318 317 316 315 314
283 291 292 291 290 287 284 285 289 291 291 291 292 293 294 293 291 286 286 287 295 296 296 293 293 293 292 292 292 291 292 292 292 292 293 293 294 294 295 296 297 297 298 298 298 299 300 300 301 302 305 305 305 312 317 317 318 318 318 318 317 318 319 318 318 316 316 317 316 317 317 317 316 316 316 315 315 315 314 315 317 317 317 317 316 315 315
282 288 290 288 283 277 280 291 294 294 290 290 288 288 291 294 294 291 294 293 293 294 294 292 291 292 292 292 293 294 292 291 291 292 292 293 294 294 295 296 296 297 298 298 298 299 299 300 300 301 303 304 306 306 308 317 317 317 317 316 316 316 318 318 317 316 317 317 317 316 316 317 317 316 316 315 314 312 313 314 314 314 314 314 313 313 314
282 285 286 283 276 278 289 294 296 295 294 293 291 291 293 292 292 292 291 291 291 292 293 292 291 292 293 294 293 292 293 293 291 291 292 294 295 294 295 295 296 296 297 297 298 298 299 300 300 301 302 303 304 305 306 305 309 315 317 317 316 316 316 317 317 316 316 316 316 316 316 316 314 313 313 313 314 314 314 314 313 313 313 312 312 312 312
285 283 281 276 279 288 294 293 293 297 295 294 291 289 292 293 292 291 289 290 292 293 292 292 292 292 293 293 294 294 295 295 293 292 291 292 294 294 295 296 296 296 296 297 297 298 299 299 299 300 301 302 302 303 304 303 303 304 304 305 307 311 313 314 315 317 316 315 315 315 314 314 314 313 312 312 312 312 312 311 310 310 310 311 312 312 311
282 282 281 280 287 287 288 287 288 289 287 288 286 282 287 294 293 292 290 290 290 291 291 291 291 291 291 290 291 294 295 295 296 296 295 295 295 296 296 297 297 299 299 299 299 299 299 299 299 299 300 301 300 301 302 302 302 302 301 301 302 303 303 304 306 308 312 313 314 314 313 314 313 313 313 313 313 313 313 312 312 312 312 313 313 312 308
284 282 280 281 280 279 283 289 292 294 293 293 293 288 284 294 295 294 292 291 291 291 291 291 291 292 288 285 286 292 294 295 294 294 294 295 297 298 298 299 299 299 299 300 301 300 300 299 300 300 300 301 300 300 301 302 301 300 299 299 299 300 302 303 304 304 306 306 309 310 310 311 310 312 313 313 314 313 313 312 312 312 312 311 311 310 306
283 282 278 277 277 280 285 287 290 293 294 294 295 288 284 293 295 295 294 292 292 291 291 291 292 288 283 283 287 292 294 295 296 295 295 296 298 300 299 299 299 300 300 300 301 300 300 299 301 302 301 302 300 300 300 301 301 299 298 298 299 299 301 302 303 303 304 305 304 304 305 307 309 309 310 312 311 311 311 311 311 309 310 311 310 308 306
282 281 279 277 281 280 286 289 292 294 296 296 290 280 280 292 294 294 293 292 292 293 293 294 292 288 283 284 288 293 294 295 294 294 294 294 296 297 298 299 300 299 299 300 298 297 297 298 299 300 301 301 301 300 301 301 300 299 299 299 300 300 300 301 301 302 302 303 303 304 305 305 305 307 307 307 307 309 307 310 311 309 308 309 309 308 306
282 281 279 281 281 286 290 290 292 293 297 295 282 278 284 294 294 294 294 294 295 294 291 291 287 290 291 291 293 294 295 295 295 295 295 295 294 293 293 293 296 297 296 296 295 296 296 298 299 299 298 298 298 299 300 299 299 300 301 301 301 301 300 300 301 301 301 302 302 304 305 306 306 305 305 305 304 306 305 305 305 305 305 304 307 307 306
281 281 280 279 281 285 290 292 294 293 290 281 279 289 297 295 293 293 293 293 293 293 292 291 291 292 293 294 293 293 293 293 292 293 293 294 294 295 294 294 294 294 294 294 295 295 296 297 298 298 297 296 297 296 297 296 296 299 299 300 301 301 300 300 301 301 301 302 302 305 306 305 305 304 304 305 305 304 303 302 302 302 302 303 303 305 305
282 282 279 277 274 284 292 293 289 291 284 284 292 294 294 295 294 293 293 293 293 293 291 292 291 292 292 292 291 291 291 291 291 291 291 291 291 292 292 292 293 294 293 293 294 294 295 296 296 296 295 295 295 295 295 296 297 298 298 298 299 299 299 299 300 300 300 300 301 304 303 303 303 303 303 303 304 305 304 303 302 301 301 301 302 303 303
278 278 277 277 284 287 292 290 283 288 291 294 294 293 291 293 293 292 292 292 292 293 292 291 291 291 290 290 291 291 290 290 291 291 291 291 291 292 293 292 292 292 292 293 293 293 294 294 295 295 294 294 294 293 294 296 296 296 297 298 298 298 298 298 298 299 300 300 300 299 299 300 300 301 302 303 303 304 303 303 301 302 300 301 302 302 302
280 280 283 288 290 290 291 291 290 291 293 294 293 293 292 291 291 292 291 291 292 293 292 291 290 289 289 289 290 290 290 290 290 290 291 290 290 291 291 291 292 292 291 291 292 293 293 294 294 294 294 293 292 292 293 295 295 295 295 295 295 296 296 297 297 298 298 298 298 298 298 298 297 298 298 300 301 303 303 303 302 301 301 301 300 301 302
289 290 290 292 290 289 289 291 292 292 293 294 293 293 291 292 292 292 291 292 293 293 292 290 289 288 288 288 289 289 289 290 291 292 291 291 291 291 291 291 291 292 291 291 291 291 292 293 293 294 293 292 292 292 294 294 293 294 294 294 294 294 294 295 295 296 296 296 297 297 297 297 297 296 297 298 299 301 302 301 301 302 303 301 300 300 299
285 280 289 289 288 289 290 290 292 292 292 292 292 291 291 292 293 293 293 292 291 290 291 290 290 290 289 288 289 289 289 290 289 290 290 291 291 291 291 292 292 291 291 291 291 292 291 293 293 294 294 294 294 294 293 294 294 294 292 293 293 292 292 293 293 294 294 294 295 295 296 296 296 297 296 296 298 297 299 300 301 300 302 300 299 298 300
283 283 287 288 290 290 292 291 290 291 291 292 292 292 293 293 293 293 293 293 290 290 289 289 289 288 289 288 287 288 289 289 289 289 289 289 289 290 291 291 291 291 291 291 291 291 292 292 293 293 293 293 294 294 294 294 293 293 292 292 291 291 292 292 292 293 293 290 292 293 294 295 295 295 295 296 294 295 295 297 298 299 299 298 297 299 299
286 289 290 291 291 290 289 291 291 291 292 292 293 294 294 293 292 291 292 291 291 290 289 289 288 289 288 288 287 287 288 288 288 289 289 289 288 289 290 291 291 290 291 291 291 291 291 291 292 292 292 292 293 292 293 293 292 291 291 290 291 290 290 290 291 292 292 292 292 292 293 293 294 294 294 295 295 295 295 296 299 301 301 300 301 302 301
281 282 286 289 283 283 287 289 290 290 292 292 292 292 291 292 291 290 290 291 292 291 290 290 289 288 288 288 288 287 288 288 288 288 288 288 288 289 290 291 291 290 291 290 290 290 290 291 291 291 291 292 292 292 292 292 292 290 290 290 289 290 290 290 290 290 290 290 292 292 292 292 293 294 291 292 289 292 292 291 290 289 292 298 302 303 302
282 288 290 291 290 288 289 290 291 291 292 292 291 290 289 290 290 289 289 289 290 290 290 290 289 288 288 288 288 287 287 287 288 288 288 287 287 288 290 290 290 290 290 291 290 290 290 291 290 291 290 290 291 291 291 291 291 290 290 289 288 288 289 288 288 289 289 289 290 290 291 291 292 292 293 294 290 288 288 290 289 289 288 289 292 297 301
288 291 291 291 288 287 290 291 291 290 291 292 291 290 289 288 288 288 288 288 287 288 289 290 289 288 287 287 288 286 286 287 287 287 287 288 288 289 290 290 289 289 289 289 289 289 289 289 289 289 289 290 290 290 290 290 290 289 288 288 286 287 287 287 288 287 287 288 288 289 289 290 290 291 292 291 293 293 291 289 289 289 289 289 288 289 293
285 291 292 292 291 291 291 290 290 290 291 291 289 288 289 289 288 288 286 287 288 288 287 288 289 289 287 287 287 286 287 287 288 288 288 289 288 289 289 289 289 288 288 288 289 289 289 289 289 289 289 289 290 290 291 291 290 289 288 287 287 286 287 287 287 287 287 287 287 288 288 289 290 292 291 291 291 292 293 291 290 289 289 289 290 289 289
292 291 293 292 291 290 291 290 290 289 289 289 289 288 291 292 289 289 288 288 287 288 287 287 287 287 288 288 287 288 287 287 287 288 287 287 288 288 288 287 288 288 288 289 290 291 291 290 289 288 287 288 289 289 290 290 290 289 289 289 289 287 286 286 286 286 287 287 287 288 289 290 291 290 290 291 291 291 290 291 292 290 289 289 289 289 289
289 290 289 287 286 286 286 285 285 288 288 289 288 289 289 289 291 289 288 288 288 288 287 287 287 287 287 287 288 287 286 287 286 286 286 287 287 287 288 288 289 290 291 292 291 289 289 288 286 287 288 289 290 291 290 290 289 288 288 288 288 288 287 287 288 287 287 287 289 290 290 290 290 289 290 290 290 290 290 290 289 288 286 287 287 288 287
288 289 289 286 284 285 285 286 287 287 288 287 288 288 288 288 286 286 287 288 289 289 288 287 287 286 286 286 286 286 287 286 285 284 285 286 287 288 288 289 290 291 291 291 289 288 287 287 287 288 288 290 290 291 291 290 289 289 287 286 286 287 288 288 288 289 289 289 289 289 290 291 291 290 290 290 290 290 290 290 290 290 289 288 285 288 288
287 287 287 287 287 288 289 288 288 288 288 288 289 288 288 287 287 287 287 288 288 288 288 288 288 286 286 287 285 286 285 284 283 283 285 287 288 287 288 287 288 289 290 288 288 287 287 288 288 288 288 290 291 290 290 289 288 287 286 286 285 285 284 285 287 288 288 289 290 290 288 288 290 292 291 289 288 289 288 288 288 288 290 287 285 285 286
288 288 288 287 287 287 287 288 289 289 289 289 288 287 287 286 285 285 286 287 289 287 286 285 285 285 287 285 286 284 283 283 283 284 287 287 288 288 288 288 287 287 287 287 288 288 289 288 288 288 288 289 290 289 288 287 286 286 286 286 285 285 286 286 288 290 290 290 289 287 288 288 291 289 288 287 287 286 286 286 286 287 288 290 288 285 284
290 289 289 288 289 288 287 287 287 288 287 287 287 286 286 286 285 285 285 287 288 287 285 285 285 285 286 285 283 283 283 282 283 285 286 286 287 286 286 286 284 282 283 286 288 289 289 288 288 288 288 288 288 288 288 287 287 287 288 288 288 287 287 287 287 289 290 289 287 287 287 285 286 285 285 285 285 285 285 285 285 286 287 288 288 286 285
288 289 290 288 288 288 289 289 288 288 288 287 286 285 285 285 284 285 285 288 287 286 285 285 286 285 284 284 283 282 282 281 283 284 284 285 285 285 284 283 283 284 285 286 287 288 289 289 288 288 288 288 288 287 289 289 289 290 291 289 289 288 288 287 288 288 288 287 287 286 284 283 283 283 283 284 285 285 285 284 283 285 286 286 285 286 286
285 285 286 287 287 287 286 286 286 286 286 285 285 286 287 287 286 287 286 288 286 286 286 286 285 284 283 283 282 281 280 280 281 280 281 282 283 283 282 281 281 282 285 288 288 288 288 289 290 291 290 290 290 290 290 291 291 291 291 290 289 289 288 288 289 290 291 289 288 286 285 283 283 283 282 284 286 286 286 285 284 285 287 288 287 286 286
287 285 286 288 287 284 283 284 285 285 286 286 287 286 286 287 286 288 288 287 285 285 285 285 285 284 283 281 278 277 277 278 279 278 279 280 280 279 279 280 283 286 288 289 289 288 286 286 288 289 291 292 293 293 291 291 290 290 290 291 292 292 293 292 290 291 291 287 286 284 285 282 284 283 284 285 285 285 285 285 284 285 286 287 288 288 287
291 289 290 289 289 288 287 287 286 286 286 286 286 286 286 286 287 286 286 284 284 285 285 285 284 282 279 277 275 275 275 275 275 277 278 278 279 278 278 281 284 287 288 287 286 284 284 286 288 288 288 290 291 293 293 293 292 291 291 292 292 293 294 293 293 289 287 286 286 284 283 282 282 284 285 285 286 286 285 285 285 284 283 285 286 287 287
291 290 290 290 289 288 288 287 287 287 286 285 287 286 285 288 289 287 286 286 285 284 283 281 279 279 276 275 274 273 273 273 273 274 275 276 277 278 281 281 284 286 287 285 283 283 284 287 288 286 287 290 292 294 292 291 293 291 289 291 293 293 293 293 292 291 290 289 287 284 283 284 283 284 285 285 286 286 285 285 285 286 285 285 285 286 286
292 291 291 291 290 289 288 287 288 288 287 286 287 287 287 289 290 287 286 284 285 284 283 282 279 277 275 273 273 272 271 273 275 275 276 275 278 281 280 282 284 285 283 282 282 283 284 288 287 286 288 292 293 294 291 286 290 291 292 292 292 292 291 292 291 290 289 289 287 285 284 284 283 283 285 286 286 285 285 285 285 286 286 285 286 286 286
292 292 290 289 288 288 287 288 289 288 287 287 288 288 289 289 288 287 287 286 285 284 283 281 279 277 276 276 276 275 274 274 275 275 276 277 279 280 280 282 284 284 282 283 285 285 287 288 287 288 292 293 292 291 291 288 287 291 292 292 291 291 291 290 290 290 290 289 287 284 283 283 283 284 285 286 286 286 286 286 286 285 285 285 285 285 285
290 291 291 290 290 289 288 288 288 288 287 287 288 288 289 289 288 286 286 285 284 283 281 280 280 280 281 281 281 280 278 277 275 277 277 279 279 280 280 281 282 281 283 285 286 285 286 288 289 290 291 291 291 292 291 290 288 291 292 291 292 291 291 292 291 290 290 289 286 285 285 284 284 282 284 285 286 286 286 286 286 286 286 286 286 286 286
290 290 290 290 288 288 288 287 287 287 287 288 288 289 289 287 286 286 285 285 285 284 283 282 282 281 282 282 283 283 283 282 281 279 279 279 280 279 280 281 281 281 281 285 285 286 288 287 289 292 292 291 289 288 289 287 287 288 290 291 292 291 291 291 291 290 290 290 289 287 287 285 283 283 284 285 286 286 287 286 286 286 286 286 286 286 286
291 290 289 289 289 288 288 287 287 288 287 287 287 288 289 288 288 286 286 286 286 285 285 285 284 282 282 283 283 284 285 285 284 283 281 280 280 280 282 282 283 283 284 284 286 288 288 288 289 290 289 289 287 284 285 286 288 290 291 291 290 289 289 289 289 289 288 289 289 289 288 286 285 284 284 285 287 287 287 286 286 287 287 287 287 287 286
289 289 289 289 290 290 289 288 288 287 288 288 288 289 289 289 289 287 287 286 286 286 285 285 284 282 282 282 283 284 285 285 285 285 285 283 282 282 282 282 285 285 286 286 287 286 286 287 287 287 284 284 285 285 284 284 287 288 289 289 288 287 287 289 289 290 290 290 289 289 289 288 287 285 284 285 286 286 287 286 286 286 286 286 287 287 286
289 289 290 290 289 289 290 288 288 288 288 289 289 289 288 289 288 287 288 287 286 286 286 284 283 283 283 282 282 283 283 285 285 285 286 286 286 285 285 286 287 286 285 285 285 286 288 289 286 283 284 284 283 284 284 285 287 288 288 289 289 289 289 289 289 289 289 289 289 288 288 287 287 286 285 285 285 286 287 287 287 287 286 286 286 286 285
290 289 289 289 289 289 289 288 288 289 288 288 289 290 290 289 289 287 287 286 286 286 285 285 283 284 284 283 283 282 282 283 282 282 282 283 286 286 288 287 286 286 285 284 284 286 287 287 284 284 285 285 285 284 283 285 287 286 286 286 287 288 288 287 286 285 286 287 288 288 287 287 287 286 286 286 286 287 287 287 288 287 286 285 284 284 285
291 291 292 290 289 289 288 287 288 288 290 290 289 289 290 289 289 288 288 286 286 286 285 285 285 285 285 285 283 283 282 282 281 280 281 282 284 284 287 287 286 285 284 285 284 286 286 285 283 284 285 284 284 284 282 284 285 285 285 285 285 286 286 285 284 284 285 286 286 286 285 285 285 285 285 285 285 285 285 285 286 286 285 285 284 284 284
289 290 290 289 290 289 289 290 290 290 290 290 290 289 289 290 289 289 288 287 287 287 287 286 286 286 286 285 285 284 284 284 283 283 283 285 284 283 286 285 284 285 284 285 285 286 283 284 284 284 284 285 284 282 282 284 285 285 286 286 285 285 284 285 285 284 283 284 284 284 284 283 284 285 285 285 285 285 285 285 285 285 285 285 284 284 283
290 289 289 289 289 289 289 290 290 290 289 289 287 288 289 289 289 289 288 288 288 288 288 288 287 287 288 287 285 284 282 282 284 284 285 284 285 285 285 285 285 286 285 284 284 284 282 282 284 284 284 284 284 282 283 284 286 287 286 285 285 285 284 284 284 284 283 283 284 285 285 284 284 285 285 285 285 285 285 285 284 284 284 285 284 284 284
289 288 288 289 289 289 290 290 290 288 288 288 287 290 290 291 291 291 289 289 289 289 288 288 288 288 288 287 286 286 284 283 281 282 283 284 284 283 284 281 283 285 284 285 285 284 284 284 284 284 284 284 283 283 283 284 285 285 285 283 283 283 283 282 283 282 284 283 283 283 282 282 283 283 283 284 285 285 285 285 285 284 284 284 284 284 283
289 289 289 289 289 289 288 288 287 287 286 288 289 288 291 291 291 291 290 290 289 288 288 289 288 289 289 288 288 286 287 285 283 282 283 283 283 283 283 285 285 285 284 283 284 282 283 284 284 284 284 284 282 284 284 284 285 284 283 283 282 282 282 282 283 282 282 283 282 283 282 282 281 281 282 283 284 285 285 285 284 284 284 285 284 284 282
290 289 289 288 287 287 287 286 286 285 288 288 288 290 290 288 287 287 288 288 289 288 288 287 287 289 288 287 287 287 287 285 286 286 286 286 286 285 284 284 283 284 284 284 286 284 284 284 284 284 284 281 281 282 284 284 283 282 282 282 282 281 283 283 285 285 284 284 283 282 282 281 281 282 282 282 283 284 284 284 284 285 285 285 284 284 283
290 288 288 288 288 288 289 289 289 289 287 288 290 288 288 287 286 286 287 290 291 288 287 287 288 289 288 288 288 287 287 285 285 285 285 286 285 285 285 284 283 283 284 283 283 284 281 281 280 282 283 282 282 283 281 282 281 282 282 281 282 282 283 283 282 282 282 283 283 282 282 282 281 281 281 281 281 282 282 283 282 282 283 283 283 283 282
290 289 289 290 289 289 289 289 290 290 289 289 288 288 287 287 288 287 287 287 288 288 288 289 288 290 290 290 290 288 286 285 284 283 285 284 284 283 285 285 284 284 283 283 282 284 282 282 284 284 284 283 282 281 284 285 283 282 282 283 283 281 282 282 282 282 283 284 283 283 283 282 281 281 281 281 281 281 281 281 281 282 282 282 282 281 280
Wind_Speed
2 2 8 6 4 4 6 10 11 10 10 11 9 1 5 1 3 7 3 9 11 7 8 6 6 8 11 11 10 8 7 6 7 6 8 8 8 8 9 11 13 13 14 11 10 7 5 7 6 4 4 4 4 4 5 5 5 6 7 9 8 8 6 3 4 5 6 2 5 5 2 4 7 8 7 3 3 4 5 5 6 7 9 9 8 6 4
3 6 7 5 6 3 8 12 10 10 12 6 7 6 8 13 10 11 13 15 13 9 9 11 10 10 12 9 8 11 12 10 11 13 13 12 12 11 11 12 12 10 10 8 9 6 3 1 4 3 3 3 2 3 3 4 5 6 8 6 8 7 6 3 2 6 6 5 7 8 7 5 7 5 1 2 2 4 5 5 6 7 8 7 7 7 6
2 5 8 5 6 6 4 7 9 10 9 9 7 5 7 11 12 10 15 15 11 5 8 10 9 11 11 15 15 11 10 11 13 15 14 14 14 14 13 13 13 13 14 14 15 16 14 9 4 1 2 3 4 5 3 4 6 5 7 8 5 6 7 5 3 3 3 2 3 4 5 5 4 5 4 1 2 4 4 4 5 7 7 7 6 5 5
3 5 4 8 8 9 8 7 6 5 5 6 2 3 2 6 6 6 12 11 7 6 10 12 12 14 15 14 12 11 9 10 13 15 13 13 13 13 13 13 12 13 14 14 14 13 13 14 14 11 7 4 4 7 6 6 6 6 7 7 7 6 5 5 5 4 3 3 4 4 5 5 4 3 2 3 2 3 3 4 4 5 6 6 5 4 4
3 7 11 7 7 5 5 6 7 3 9 8 5 7 6 5 12 7 5 6 6 8 9 16 12 13 12 13 10 8 10 11 13 14 13 12 13 12 12 13 13 13 12 12 13 12 13 13 13 13 11 12 12 4 7 7 5 7 8 8 8 8 6 5 5 4 3 3 3 4 5 5 3 4 5 2 1 1 3 2 4 6 6 7 5 4 5
2 8 7 7 5 4 2 4 7 1 4 6 12 7 7 8 6 5 7 10 9 9 9 13 11 15 10 8 6 6 6 7 11 12 12 11 10 10 11 11 11 11 10 10 11 11 10 11 11 11 15 12 10 11 8 4 6 6 6 6 6 6 5 4 4 3 3 2 2 1 3 5 5 6 6 6 6 3 3 3 4 4 4 5 4 4 4
1 2 5 6 2 2 2 9 7 12 10 11 14 11 11 12 13 14 13 12 12 11 11 12 12 10 9 7 7 6 7 8 6 8 10 10 9 9 8 9 9 9 8 9 11 13 13 11 11 14 16 14 13 15 13 12 10 7 7 6 5 4 3 7 5 5 4 3 2 1 2 5 4 5 5 6 6 5 5 5 5 6 6 5 4 4 4
1 2 2 3 2 1 2 3 10 7 8 7 11 11 9 7 9 12 13 11 11 12 13 11 10 11 10 9 7 6 4 5 6 7 8 8 9 9 6 7 6 7 8 9 9 9 9 12 12 12 12 12 14 12 13 13 11 11 10 9 7 6 6 6 4 4 10 9 7 4 3 3 4 2 2 2 3 2 2 2 2 3 3 4 5 5 4
3 3 3 4 3 2 7 4 5 7 5 5 1 5 3 4 4 11 12 11 11 12 12 12 10 10 11 11 7 4 6 6 6 9 7 8 9 7 6 6 6 6 6 9 9 8 11 12 13 12 10 10 11 12 12 12 12 12 13 12 11 8 6 4 4 3 3 4 8 8 6 6 6 6 5 5 4 4 5 4 5 5 5 5 6 6 6
2 7 4 2 1 3 2 3 7 3 5 7 7 6 2 2 4 4 11 13 12 13 12 11 11 8 12 9 2 3 5 7 10 9 10 8 6 6 7 6 5 4 7 8 8 9 12 13 11 10 12 12 12 13 12 11 12 12 13 12 11 11 11 10 10 8 5 5 4 1 3 3 3 5 6 5 6 6 6 6 6 6 6 5 4 5 6
2 3 5 2 2 1 1 6 7 6 4 8 7 5 3 1 2 3 6 8 8 10 11 12 7 7 10 5 5 5 5 6 8 8 6 7 7 8 7 6 7 5 4 5 4 5 9 8 8 7 9 11 12 12 12 11 10 12 11 11 11 11 9 9 9 8 8 7 5 4 3 0 1 3 4 5 5 4 5 5 5 4 6 6 5 4 6
1 2 3 3 2 1 3 6 6 6 4 6 2 6 2 3 3 3 4 5 4 4 4 4 6 8 11 7 7 6 6 5 5 6 6 5 4 3 3 3 3 4 3 3 3 5 6 5 4 6 6 6 7 9 8 9 11 10 9 8 8 8 8 8 8 9 8 8 7 7 6 4 2 1 2 3 4 4 4 4 6 5 5 6 7 6 5
4 6 2 3 1 1 3 5 9 8 1 1 5 3 1 1 4 3 4 4 3 4 7 7 8 6 8 9 8 7 7 8 8 8 8 8 7 7 7 7 4 2 6 7 7 6 6 6 6 7 7 8 8 8 7 9 8 7 6 6 7 7 7 8 9 9 9 8 9 8 5 4 4 2 2 0 4 5 4 4 4 4 4 4 6 7 7
2 1 5 2 1 2 5 9 5 2 1 4 5 1 0 10 7 10 11 12 10 9 9 9 9 8 10 11 10 11 10 9 8 9 9 9 9 9 10 11 10 7 8 9 9 9 9 9 8 8 8 9 9 9 8 9 7 7 9 7 7 7 8 8 8 9 10 10 9 7 8 8 8 6 5 5 3 1 1 4 5 3 4 4 4 6 6
2 2 4 2 1 3 9 5 4 9 5 3 4 7 9 7 9 10 11 11 10 12 13 12 12 12 11 11 10 9 9 9 9 9 9 8 8 9 10 10 10 8 7 8 8 7 8 9 8 8 8 8 7 8 8 8 7 8 8 8 9 8 7 8 7 8 8 9 8 6 7 8 8 8 7 6 5 5 4 3 2 0 3 4 4 5 7
2 2 2 2 1 3 8 8 4 2 3 4 6 9 8 8 8 10 9 9 8 10 11 10 10 9 9 9 8 8 7 6 7 7 7 7 7 7 7 6 6 6 5 5 6 6 7 7 7 7 7 6 6 6 7 7 7 7 8 8 8 8 8 7 8 7 6 6 7 8 8 8 7 8 8 7 7 5 5 5 5 6 2 3 5 5 5
2 2 4 5 5 5 6 7 7 9 11 12 11 10 8 8 7 5 8 8 9 9 9 10 9 9 7 6 6 6 5 5 5 6 6 4 4 4 5 4 5 4 4 4 5 6 5 5 5 5 5 5 5 5 4 5 6 5 6 6 6 7 8 8 8 8 8 8 8 7 7 8 9 8 7 6 7 7 5 3 3 3 5 2 6 8 8
10 9 7 7 5 6 8 7 7 8 9 9 8 9 9 9 9 9 9 9 7 8 9 10 7 6 5 5 5 5 5 5 5 5 4 3 3 3 4 3 3 3 4 4 4 4 5 3 3 3 3 3 4 3 3 4 4 4 4 5 5 6 6 7 8 8 8 8 8 8 8 7 6 6 7 8 7 7 6 6 4 2 6 9 4 4 2
6 5 3 6 7 6 6 8 9 9 8 8 8 10 9 9 9 9 7 8 9 9 7 8 7 5 4 4 4 4 4 5 4 4 3 3 3 2 2 1 3 3 3 3 3 3 3 3 2 1 1 1 0 0 1 1 2 2 2 2 3 3 4 3 4 5 6 6 7 7 7 7 6 6 6 6 6 7 7 6 6 6 8 9 5 4 4
5 5 5 5 6 5 6 6 6 8 9 8 7 6 6 6 6 6 7 7 7 5 7 5 7 5 5 5 4 2 4 4 4 4 4 4 4 4 3 2 2 3 2 2 1 1 2 4 3 3 4 6 8 9 8 8 8 6 4 3 3 3 4 4 4 4 4 6 7 6 6 6 7 7 7 6 6 7 7 7 6 7 7 6 5 6 3
7 9 7 7 7 6 6 7 7 6 5 7 7 6 6 6 7 6 5 6 5 5 4 6 4 6 6 5 5 4 5 4 4 4 5 4 4 3 2 1 1 2 1 1 2 5 6 6 7 7 7 7 8 8 8 8 9 9 9 9 8 6 5 5 6 7 7 6 7 8 8 7 6 5 5 7 8 8 6 2 4 6 7 5 5 6 8
4 4 8 8 6 5 5 6 6 5 5 6 6 5 6 5 5 5 4 6 8 7 5 5 6 6 5 4 4 4 4 5 5 5 3 2 2 3 2 2 5 5 6 5 6 6 6 7 7 7 7 7 7 7 7 7 8 9 8 8 8 9 8 8 8 8 8 8 8 8 8 8 9 9 12 9 3 4 8 13 11 9 6 5 7 7 8
5 5 7 8 7 7 6 5 4 4 4 6 6 6 6 7 8 7 8 6 5 4 4 5 6 6 5 5 4 4 4 5 4 1 1 2 4 3 6 8 8 8 8 7 6 6 6 6 7 7 7 6 6 6 5 6 7 7 7 7 7 6 7 6 8 7 7 7 7 7 7 8 8 9 9 10 6 5 3 6 10 15 15 14 10 12 12
7 7 8 6 5 6 4 6 8 10 8 6 7 7 8 7 7 5 4 4 6 5 5 5 5 5 5 4 5 4 4 4 3 3 4 4 4 5 7 7 7 7 7 7 6 5 4 5 5 5 5 6 6 7 7 6 6 6 6 6 6 6 6 6 8 7 6 6 6 7 7 7 7 7 8 9 11 8 7 6 8 9 11 12 13 13 9
5 7 10 8 8 6 4 6 7 6 6 8 9 8 6 5 4 5 2 3 5 4 5 6 5 4 4 4 4 4 3 3 1 3 3 3 5 6 5 6 5 4 4 4 4 4 4 4 5 5 5 5 6 6 7 7 6 6 6 6 6 5 6 6 6 7 7 6 6 6 7 7 7 8 7 7 8 11 11 8 5 7 8 10 11 12 12
5 6 7 5 4 5 5 7 7 6 5 5 4 4 5 5 2 2 1 5 5 6 6 5 4 4 2 0 3 0 1 1 4 3 4 5 5 5 5 4 4 4 3 3 4 5 6 6 5 5 5 5 5 5 6 5 6 4 4 5 5 4 4 5 6 6 6 6 6 6 6 6 6 7 7 7 8 8 8 9 10 5 6 10 11 9 12
6 5 6 8 8 6 5 5 3 5 5 2 2 5 4 4 4 2 0 4 5 6 7 4 4 2 1 1 1 1 2 1 5 4 4 4 4 4 3 4 4 3 3 4 6 7 6 4 4 4 4 3 3 4 3 4 4 4 4 4 4 5 6 5 5 5 5 5 5 6 6 7 7 8 8 8 8 8 7 6 6 5 3 4 7 9 6
9 11 8 6 5 5 4 4 5 3 5 8 8 6 5 4 4 4 4 4 8 6 5 5 3 3 1 1 2 2 5 6 4 4 5 4 3 4 4 4 4 4 4 5 5 5 5 4 4 5 3 2 3 3 4 4 3 3 3 4 3 3 4 4 5 5 5 5 6 5 6 7 7 8 7 6 7 8 9 7 7 7 4 3 2 4 7
6 6 6 5 5 4 4 4 5 1 2 6 7 6 8 7 6 6 4 3 6 5 3 3 3 3 2 0 3 4 4 5 5 5 5 5 4 4 4 4 4 4 5 5 5 5 4 3 3 2 3 1 0 2 2 2 3 3 4 3 3 4 2 2 3 4 4 5 5 6 6 7 6 5 5 6 7 7 7 7 8 7 6 2 1 2 4
6 6 6 5 4 4 3 2 3 2 5 6 8 6 6 5 4 4 4 6 3 5 6 4 4 3 0 4 5 4 6 4 4 4 5 5 6 6 5 5 5 5 5 5 4 3 3 2 2 3 3 1 1 1 2 2 3 3 4 4 3 0 1 3 3 4 4 4 5 6 6 6 5 5 5 5 6 5 5 7 7 6 9 4 2 2 2
7 7 6 4 2 0 0 3 2 1 4 7 8 7 5 4 3 2 2 4 4 5 5 3 2 4 8 6 4 4 4 4 4 5 4 5 6 6 6 5 4 2 2 1 2 3 2 3 3 2 1 0 0 1 1 3 3 3 3 2 2 4 6 5 3 3 2 4 5 4 4 4 5 5 5 6 6 6 6 5 6 6 6 4 3 4 3
7 6 5 2 1 0 1 1 1 2 3 7 7 6 6 5 3 0 4 1 2 2 2 4 8 7 4 4 4 4 4 3 4 4 4 4 5 5 4 3 2 2 1 1 3 2 3 3 4 2 2 0 2 2 3 3 3 1 1 2 3 3 5 7 4 2 1 2 2 1 2 4 6 4 4 5 4 5 5 5 5 5 5 5 5 4 0
5 5 3 3 2 2 4 5 5 6 2 5 5 6 5 6 4 1 2 2 1 3 6 7 6 5 4 4 5 3 2 2 4 4 4 3 3 3 2 2 2 3 3 3 0 2 3 3 4 5 1 1 3 4 3 2 1 1 2 2 3 4 4 5 4 3 2 1 1 1 3 4 3 4 5 4 5 4 5 5 4 5 4 4 4 4 4
3 3 5 5 5 4 4 4 4 4 4 4 5 5 5 5 4 3 2 1 4 5 7 6 5 5 4 4 4 2 2 2 3 1 1 0 1 1 2 2 3 3 3 1 2 3 2 3 4 3 4 4 5 4 2 1 0 1 2 3 5 5 5 4 5 1 3 3 2 4 4 3 5 5 4 5 4 5 5 4 5 5 4 4 5 4 5
4 7 9 8 6 5 4 4 3 4 2 4 4 4 4 3 4 3 5 4 3 5 6 6 5 4 4 4 3 2 2 1 2 1 1 1 1 1 1 1 2 3 1 2 1 2 3 4 2 3 4 3 4 3 4 3 3 1 3 4 5 5 4 4 2 4 4 4 5 4 3 3 3 4 5 4 4 4 4 5 5 4 4 4 4 5 5
3 5 7 7 6 6 5 4 4 3 3 4 5 4 4 1 1 2 3 4 5 7 5 5 5 4 3 2 2 3 2 3 3 2 1 2 2 1 0 1 2 3 2 0 2 2 3 3 5 6 5 4 2 1 2 2 3 3 3 4 4 3 4 3 5 4 4 4 5 4 2 3 3 3 4 4 4 4 5 5 5 5 4 4 4 5 5
7 7 6 6 5 4 3 1 2 2 4 4 5 4 4 3 3 4 2 4 8 6 5 5 3 2 2 3 4 4 4 4 4 3 3 3 1 0 1 2 3 3 2 1 2 1 3 4 6 9 6 2 1 0 3 4 4 3 3 2 1 3 3 3 2 3 2 2 5 4 2 2 2 3 5 4 4 5 5 5 5 4 5 5 5 5 6
6 7 6 6 5 4 3 3 0 0 2 3 2 3 4 3 4 3 4 6 7 6 6 5 4 4 4 2 2 4 4 4 4 4 2 2 1 1 1 2 4 1 1 1 1 2 3 4 7 6 4 1 3 1 0 2 4 3 1 1 1 2 2 2 0 2 1 0 1 4 4 4 4 5 4 4 5 5 5 5 5 5 5 5 6 5 5
3 8 6 4 1 0 1 3 1 3 4 2 1 2 3 3 4 4 3 5 6 6 5 5 4 3 3 4 4 4 4 5 4 4 4 5 3 3 2 2 1 1 2 1 1 3 4 4 4 4 3 2 2 2 1 1 5 3 3 3 3 4 3 2 1 2 1 1 2 3 4 3 4 2 3 4 5 4 4 6 6 5 5 6 6 6 6
5 6 4 5 3 3 1 2 4 1 4 3 2 2 3 4 3 3 2 3 6 6 6 5 5 5 5 4 5 6 6 6 6 5 5 4 3 4 3 3 3 3 3 3 3 3 5 5 4 3 0 3 2 3 3 5 6 4 4 4 5 3 3 2 2 3 3 2 1 4 4 3 3 3 4 4 4 4 4 4 5 5 5 6 6 6 6
3 3 3 3 2 2 2 2 2 2 2 4 4 4 2 5 4 4 5 4 7 6 6 6 6 5 4 3 4 7 6 7 6 7 5 3 3 4 5 4 5 4 4 4 4 4 5 4 2 2 3 3 2 4 4 6 5 4 2 4 4 6 6 5 4 4 3 2 1 3 5 4 3 4 3 4 5 4 4 4 4 5 5 5 5 5 6
0 4 3 2 2 2 3 4 1 2 4 1 3 1 2 2 6 4 4 3 5 6 5 4 6 2 1 2 1 4 7 7 7 7 6 7 7 6 6 5 4 5 7 7 6 4 4 3 2 3 1 1 1 4 5 4 3 1 3 4 4 4 4 3 3 2 2 2 2 3 6 5 4 4 4 4 5 4 4 4 3 4 5 5 5 5 5
5 2 3 4 4 3 1 3 1 3 2 1 1 1 3 2 3 4 2 1 3 4 4 4 5 3 1 2 3 4 4 7 8 8 7 8 6 5 8 6 7 7 9 5 4 3 5 4 5 2 2 0 1 3 4 4 1 2 2 3 4 4 3 2 1 2 2 4 5 5 5 5 5 5 5 5 5 5 3 3 4 4 4 5 5 5 5
7 5 3 5 4 6 6 2 3 2 3 4 4 3 3 2 2 4 3 3 4 4 3 4 5 4 5 4 4 4 2 5 5 5 4 2 1 3 5 7 5 6 6 4 3 5 4 4 3 2 2 1 1 4 3 4 1 2 2 3 3 3 2 1 1 2 3 4 4 5 5 5 4 5 4 4 5 3 3 3 2 3 5 5 5 5 5
2 7 2 4 5 6 5 3 4 5 5 3 4 4 3 3 3 3 4 3 4 4 5 4 4 5 6 5 4 3 2 2 3 4 6 5 4 2 1 7 5 5 4 4 1 1 4 4 4 4 1 3 4 4 3 5 3 2 2 2 2 2 1 1 2 2 4 5 5 5 5 5 6 6 6 5 6 6 5 5 5 4 5 4 4 4 4
4 6 5 7 7 5 3 3 2 2 1 3 2 2 4 4 4 4 4 5 5 5 4 5 4 3 3 3 3 3 1 2 2 4 6 9 8 5 5 6 5 4 3 2 0 1 3 4 4 3 1 2 2 3 4 4 3 3 3 3 3 2 2 1 0 2 3 6 6 6 6 6 6 6 5 4 4 5 5 6 6 5 5 5 4 3 4
2 3 4 2 4 5 5 5 5 5 4 4 4 4 2 2 4 3 5 6 6 5 5 5 6 6 5 5 4 3 3 2 1 4 5 5 6 6 6 7 6 5 3 1 2 3 3 3 3 2 1 3 3 4 4 4 4 4 4 4 2 1 3 4 4 3 4 5 5 6 6 6 6 6 6 5 5 4 4 5 5 5 4 4 4 4 3
3 3 4 4 4 4 3 2 2 2 3 5 3 4 6 5 6 6 4 3 5 5 5 5 6 6 5 5 5 4 3 7 5 2 2 6 6 6 6 4 4 5 4 4 4 2 3 5 5 3 4 4 4 4 6 5 3 2 2 2 4 6 6 3 2 3 5 6 5 5 6 6 6 6 6 5 5 5 4 4 4 4 4 4 3 2 2
5 4 4 4 4 3 3 4 4 4 4 3 2 1 5 6 6 5 6 4 3 3 5 5 4 4 5 6 7 5 5 4 5 6 6 6 6 6 6 6 7 7 4 3 3 3 4 4 5 5 4 4 3 5 0 3 5 5 5 5 3 4 4 4 4 4 4 4 6 6 5 5 5 5 5 5 4 4 5 4 4 4 3 3 3 1 2
0 1 0 0 1 2 3 3 2 4 5 5 6 4 4 2 0 3 3 4 2 3 4 5 3 3 5 7 7 7 6 5 6 7 8 7 6 6 6 6 5 6 6 4 4 4 5 6 4 3 3 3 3 1 3 4 4 3 4 4 4 3 3 2 5 6 6 7 7 6 5 5 5 5 4 4 5 5 4 4 4 4 5 3 3 3 5
1 2 3 2 2 3 3 2 1 4 2 6 5 4 2 3 4 2 3 5 2 3 6 4 3 5 5 2 4 7 6 6 7 7 8 9 8 7 7 6 6 5 5 4 3 6 5 4 4 3 3 3 2 1 4 3 3 3 4 4 3 3 2 2 4 5 7 7 6 6 5 5 4 4 4 4 3 3 4 4 3 2 1 2 4 5 5
4 4 5 4 4 4 3 2 2 1 3 1 1 0 2 5 6 6 3 6 6 6 5 1 4 7 1 6 6 7 3 5 7 7 7 7 8 7 7 7 6 6 6 6 5 5 5 6 4 5 5 2 1 3 3 3 2 2 2 2 3 2 3 3 3 4 6 7 7 6 6 5 5 4 3 3 3 4 3 3 2 2 3 5 5 5 5
Wind_Direction
319 320 129 137 97 102 92 80 68 62 61 54 78 353 281 226 140 160 137 107 101 94 79 78 88 86 67 58 60 65 79 86 78 71 71 65 55 57 38 20 20 22 50 30 9 22 46 80 89 96 99 85 82 76 97 112 108 100 98 91 87 102 107 157 168 103 112 124 97 89 12 44 55 37 18 21 74 101 106 110 110 112 117 120 121 119 132
260 95 83 80 109 126 106 92 90 85 71 63 74 63 24 74 79 104 108 85 63 51 63 58 54 62 70 62 53 52 55 58 58 54 46 45 48 50 51 51 52 42 28 30 30 33 74 260 99 87 93 105 116 126 125 104 92 103 107 114 118 118 121 131 110 112 125 134 132 139 143 119 98 95 24 326 95 112 120 124 119 118 121 129 133 138 132
326 104 88 74 71 75 94 104 99 90 93 68 44 55 36 62 72 77 83 81 78 48 67 66 57 63 67 57 48 45 49 59 67 65 59 52 44 39 37 37 39 43 42 39 35 31 19 13 28 51 157 182 169 158 124 94 103 99 95 104 103 107 127 159 150 108 110 97 78 108 125 108 112 150 175 200 84 90 109 129 130 131 131 130 136 145 147
319 10 67 97 68 69 63 59 42 92 78 67 358 48 334 99 102 89 92 88 102 107 84 69 52 57 59 64 57 51 39 46 63 66 61 57 53 47 44 39 31 35 39 38 38 31 28 24 21 5 0 24 67 104 110 111 121 113 109 113 107 105 106 89 80 83 91 95 101 120 129 135 142 145 92 43 28 95 115 134 137 125 123 133 145 155 138
355 22 10 1 89 57 39 358 330 59 90 115 88 53 49 120 131 108 92 127 127 126 112 90 69 65 60 60 50 49 49 56 65 67 64 60 55 46 40 39 35 31 31 34 31 29 29 23 19 7 11 30 22 30 117 133 115 113 115 113 119 123 125 121 119 124 129 131 137 129 134 137 137 95 98 113 264 142 142 165 131 126 136 137 146 148 145
294 337 47 33 31 61 45 281 301 153 122 110 80 56 52 56 68 107 108 102 85 76 74 95 102 91 84 86 71 57 57 59 72 72 73 66 59 53 46 42 39 32 30 30 32 31 29 24 22 22 26 15 17 32 28 43 110 117 111 106 106 111 104 90 91 67 28 88 76 121 147 153 155 154 159 175 187 186 154 148 131 126 124 128 134 150 155
200 327 55 60 66 82 305 309 40 70 76 68 80 63 55 69 76 85 89 93 100 104 105 108 105 102 102 94 90 67 81 68 39 76 71 63 58 53 41 37 33 32 28 28 28 26 19 15 23 33 31 20 28 36 43 54 39 44 55 57 51 32 76 125 129 97 64 40 324 335 108 136 152 152 162 164 169 166 157 159 150 148 148 155 160 161 157
94 69 62 121 125 202 309 2 21 41 80 75 65 52 32 47 88 95 93 100 105 111 113 111 114 115 112 92 74 81 62 94 112 75 65 63 62 55 41 37 29 34 30 36 34 29 15 19 25 33 31 28 34 32 39 41 47 55 68 75 84 97 69 7 357 148 160 170 195 182 187 155 145 152 153 141 138 159 137 144 127 119 135 144 162 167 157
125 141 77 89 114 107 20 350 4 1 7 350 307 120 33 27 77 111 115 115 114 113 116 120 123 122 109 89 70 67 100 96 80 91 92 91 83 84 70 69 57 38 35 41 34 32 34 28 25 20 18 27 34 34 34 33 36 38 40 40 38 41 60 92 133 155 188 179 175 176 191 174 169 168 166 175 179 176 172 175 165 169 180 176 175 165 153
117 123 103 76 68 178 128 302 306 335 4 349 343 102 66 7 53 101 127 132 137 134 136 139 146 149 85 69 81 174 135 117 109 102 94 83 90 88 91 80 67 45 50 55 46 43 40 31 26 21 17 25 32 31 28 30 32 32 32 27 22 22 21 22 25 37 63 85 84 150 152 206 211 190 183 172 182 173 167 175 180 190 181 166 169 163 154
63 102 127 126 148 101 200 305 304 314 355 350 325 82 84 253 114 87 108 118 129 136 144 148 144 97 89 127 171 189 164 147 138 134 141 147 134 133 130 126 118 113 85 74 65 51 64 44 17 15 29 27 34 34 24 26 30 30 27 19 14 12 12 14 14 15 24 37 59 74 68 15 196 180 190 185 185 181 180 175 190 181 168 162 168 170 174
347 121 82 121 64 192 282 286 293 315 14 318 38 95 149 205 127 107 96 109 111 110 115 100 79 101 115 114 104 122 132 133 133 125 134 139 138 123 125 126 142 151 177 127 84 71 67 68 66 39 25 39 43 49 37 28 32 26 16 11 4 3 7 11 8 8 8 12 16 19 26 35 59 264 243 215 175 187 199 192 196 196 174 163 172 188 183
60 70 85 92 66 320 286 287 301 290 307 354 66 114 259 75 90 132 134 130 108 78 79 86 87 62 95 111 109 89 79 76 70 70 73 79 78 71 55 38 19 69 52 40 46 48 45 43 41 28 26 36 34 37 39 38 25 10 6 360 3 6 3 3 3 1 359 358 359 356 7 0 354 17 63 144 179 159 190 197 181 201 221 200 185 186 180
55 62 78 98 73 240 271 280 286 309 65 68 115 227 115 96 84 78 88 90 89 97 89 93 95 89 75 72 69 69 67 65 56 51 48 48 48 46 39 31 28 29 36 31 27 29 31 33 28 25 26 28 26 22 27 27 7 357 0 0 7 8 6 2 359 357 354 349 349 350 350 355 351 344 336 351 333 310 161 136 133 169 184 189 159 189 190
84 78 96 81 66 329 340 323 5 8 77 103 132 101 71 75 80 79 69 68 63 76 80 74 80 81 77 75 72 66 62 64 59 51 46 44 45 44 37 24 16 22 33 26 24 31 31 30 26 23 29 28 21 15 16 4 359 2 2 4 3 3 2 358 354 350 345 342 343 345 343 341 346 336 333 338 336 346 348 330 319 64 123 132 144 177 188
114 77 71 85 65 356 356 58 108 341 38 115 100 97 78 57 70 77 80 69 76 74 82 85 77 75 78 72 76 71 59 58 66 61 52 45 40 45 51 35 8 19 35 21 30 30 30 31 26 25 32 29 21 21 10 354 4 5 9 9 9 10 4 358 355 348 343 343 344 342 338 342 342 335 328 324 318 307 299 285 280 284 272 140 148 154 185
83 114 113 98 78 56 40 60 73 62 53 60 73 85 86 79 62 69 86 84 75 74 77 80 83 81 76 80 79 93 90 71 74 85 75 63 53 64 74 50 11 13 20 17 41 30 24 33 28 31 37 39 26 20 351 10 7 10 10 12 13 9 4 0 358 351 350 346 343 344 345 347 340 333 320 318 314 308 296 238 242 260 282 236 169 182 184
83 83 99 107 85 69 60 53 52 57 59 55 65 69 73 58 62 58 63 52 57 83 92 86 72 79 81 78 78 82 93 99 91 84 85 78 71 67 76 57 17 18 8 24 45 30 4 13 32 32 32 50 32 344 3 8 359 6 11 14 17 9 3 356 350 348 346 342 340 340 337 337 333 326 321 315 309 292 287 273 226 225 293 278 266 193 147
105 89 91 98 107 106 97 81 66 60 59 61 59 69 71 78 74 74 74 75 67 56 63 90 96 93 100 116 132 131 121 113 113 111 112 120 111 89 83 105 43 3 36 43 28 25 349 331 350 328 38 358 288 254 1 316 320 347 356 39 22 4 338 332 334 335 336 336 333 330 328 323 320 317 323 322 318 315 309 292 275 226 219 218 234 263 184
80 123 125 115 109 102 94 91 87 77 76 80 77 81 84 83 84 82 82 79 73 70 60 74 97 82 60 54 35 100 120 107 96 85 71 61 48 36 65 74 26 1 31 38 47 1 324 323 338 1 8 12 17 14 6 5 351 350 1 11 11 352 337 329 318 310 321 325 330 326 321 321 320 321 315 311 307 299 296 300 295 291 278 252 196 173 103
102 114 118 117 115 98 98 96 91 101 106 96 104 103 102 95 78 66 73 96 96 79 74 50 73 96 74 54 29 44 89 82 72 67 62 48 34 9 11 337 237 228 246 337 3 28 25 23 33 31 26 24 23 24 19 15 16 15 9 359 355 355 356 359 348 349 351 357 354 349 341 335 328 317 314 314 317 305 286 246 289 285 265 224 175 161 148
128 153 147 146 126 126 112 111 130 135 129 120 111 91 81 86 96 97 96 85 80 78 71 60 62 86 86 69 48 45 77 84 76 62 43 26 352 312 292 351 11 36 49 51 45 39 29 25 28 28 21 17 15 20 18 17 17 14 5 7 9 3 359 4 11 8 5 1 360 354 349 343 340 336 329 351 14 340 315 335 348 329 295 237 196 172 193
113 98 102 106 106 96 108 123 122 108 112 115 99 91 98 82 75 71 62 71 90 92 78 70 79 68 74 69 56 45 59 73 96 93 33 10 334 7 37 50 36 31 27 30 39 37 28 28 27 23 17 8 10 6 17 21 17 9 3 7 3 1 1 10 7 4 356 354 350 349 345 343 342 342 338 345 13 39 22 346 7 11 12 351 310 217 182
89 96 102 100 104 112 108 90 79 72 54 63 86 77 69 71 74 66 69 91 103 79 74 76 78 68 46 41 70 52 34 49 45 30 19 10 42 58 53 55 44 32 24 21 24 24 22 31 25 17 9 1 11 5 6 7 15 13 5 7 3 353 357 355 357 354 347 346 345 347 342 339 338 344 345 341 333 335 349 9 25 34 29 15 2 350 288
101 101 101 105 114 124 121 104 99 92 92 92 94 98 99 82 62 82 85 60 73 89 94 83 71 76 57 27 66 56 43 354 5 39 16 67 64 68 60 50 41 33 19 11 13 7 11 24 21 14 21 12 16 13 8 0 0 7 358 358 356 353 355 350 350 343 340 342 340 340 336 339 343 345 345 340 335 328 331 345 19 54 42 28 19 10 358
90 107 118 114 82 66 67 63 64 84 80 85 99 106 110 111 132 131 152 124 103 97 86 79 69 46 81 314 84 89 62 277 322 55 68 60 58 62 61 59 47 31 4 4 1 15 27 34 33 29 23 11 12 6 357 356 2 354 353 346 340 344 349 342 337 327 327 327 336 342 342 344 337 337 332 329 322 316 319 335 344 339 3 18 20 22 30
59 67 81 70 64 69 84 110 119 100 97 81 83 129 148 164 148 148 195 141 150 122 111 115 115 127 345 288 166 195 185 287 62 84 87 86 85 96 86 63 39 20 9 2 47 37 22 29 32 35 14 355 360 358 345 354 345 348 334 334 333 329 335 331 315 318 326 338 349 341 340 338 338 335 329 325 321 317 314 337 327 316 326 330 7 26 40
72 58 53 88 92 96 86 79 73 63 97 88 69 67 60 54 56 48 44 67 71 90 117 149 130 98 275 323 74 318 63 73 66 48 51 53 64 73 74 69 55 26 12 58 57 39 28 8 28 24 336 345 4 352 344 330 333 319 323 318 328 334 326 332 355 352 345 342 336 336 342 334 329 321 317 329 347 351 345 338 338 329 303 341 335 20 47
74 93 102 102 112 113 133 121 118 181 116 106 100 76 60 44 18 30 16 85 142 142 131 116 150 171 142 168 50 60 75 64 58 45 49 44 33 38 47 53 40 31 49 56 44 30 11 358 345 312 295 320 259 295 304 312 319 321 319 316 320 321 350 4 337 312 319 328 333 343 334 321 319 322 340 358 356 353 351 343 339 329 309 285 322 348 12
89 76 67 54 39 36 39 109 109 73 94 101 93 95 93 76 39 16 353 342 337 135 144 135 81 55 49 34 63 81 74 65 50 55 54 39 33 34 33 33 44 39 36 34 35 342 303 304 303 296 290 302 327 296 284 321 304 282 276 287 307 12 344 305 298 307 322 334 337 343 335 335 347 346 356 2 356 345 341 335 330 335 331 311 321 265 213
95 94 96 95 101 281 48 72 51 240 140 120 113 108 101 90 77 47 320 318 320 66 54 76 95 55 62 83 76 66 66 51 43 65 60 46 54 44 31 36 64 51 23 24 324 310 303 291 293 298 280 352 298 309 293 273 275 278 301 0 7 315 306 308 307 308 325 345 347 352 351 355 346 1 5 352 344 340 337 333 332 331 323 308 222 224 208
117 113 136 144 86 29 192 188 192 273 163 137 124 120 133 132 133 245 288 341 75 107 113 71 74 89 92 78 72 59 57 31 57 66 52 54 54 53 37 31 30 345 272 297 289 300 324 323 316 303 156 175 214 233 246 262 281 294 53 337 327 310 299 296 301 305 33 12 330 21 12 11 5 3 355 343 334 335 332 330 328 324 323 3 6 14 62
146 149 160 108 71 28 39 24 19 354 21 131 130 137 129 120 121 171 247 250 132 71 73 88 99 94 90 76 70 60 32 36 86 66 62 45 55 36 23 355 300 264 282 265 243 18 309 321 310 307 275 323 271 246 249 241 164 74 293 283 267 281 285 294 294 329 14 101 103 60 32 34 9 8 356 351 341 338 341 337 335 334 345 19 13 7 11
149 154 147 129 124 117 79 32 349 356 37 92 127 121 124 122 130 190 234 100 91 76 91 107 116 114 104 108 104 91 43 72 94 50 31 56 21 337 315 298 275 284 249 124 29 320 313 303 311 322 349 345 333 315 283 359 200 254 283 325 331 326 320 320 330 27 91 114 106 56 50 35 25 13 6 347 347 347 342 349 345 348 356 2 2 350 7
119 120 120 115 99 84 83 55 13 323 82 90 100 100 106 122 124 141 158 150 108 115 114 103 107 108 111 114 113 104 113 167 184 185 224 268 276 280 278 306 310 299 102 61 355 295 299 295 304 343 331 328 317 0 25 4 352 357 10 340 320 313 307 323 28 84 107 98 78 64 57 41 24 23 1 354 355 348 348 351 354 353 356 0 351 349 12
111 115 105 99 94 84 61 35 338 296 139 111 139 138 135 155 126 137 70 84 110 108 99 105 112 114 118 122 141 179 200 221 216 208 241 246 248 258 13 359 298 279 137 128 288 285 305 298 317 334 323 312 296 58 18 352 341 356 343 331 322 331 2 9 72 66 67 95 104 119 117 86 55 28 20 11 1 2 2 0 3 1 13 15 13 14 7
81 85 91 91 96 106 122 234 262 53 90 101 127 138 142 185 194 172 144 117 121 131 127 126 121 139 200 213 202 201 202 198 203 208 218 211 210 356 339 315 279 257 140 162 278 307 310 300 309 315 313 285 260 77 359 29 8 334 324 333 9 8 4 354 80 97 69 90 130 158 140 96 66 52 35 22 16 12 15 13 2 17 25 24 31 36 32
101 94 89 82 72 65 52 357 223 89 131 113 126 145 168 202 173 155 163 129 131 136 144 147 172 196 201 199 180 192 221 227 222 234 228 224 188 165 280 248 249 184 117 201 287 302 289 288 301 311 305 228 138 117 16 351 1 319 253 284 316 325 300 309 31 102 101 296 131 129 108 87 67 44 32 29 28 19 19 18 22 28 27 35 38 37 38
86 94 97 102 102 89 81 356 303 133 119 129 131 182 198 145 110 96 95 129 153 139 144 165 187 173 191 185 222 222 224 229 228 225 231 232 202 180 229 223 203 175 184 175 207 257 257 276 305 299 300 75 104 182 202 331 356 340 298 265 231 235 250 255 222 147 172 65 80 98 81 74 81 72 59 43 39 33 27 42 44 30 34 40 39 40 44
141 141 158 140 150 125 105 296 342 165 139 137 145 254 192 151 139 137 195 153 161 157 163 171 180 202 222 218 214 218 208 200 205 214 221 217 192 202 243 276 263 254 241 212 236 252 268 294 303 306 321 93 63 16 344 342 332 308 290 267 257 252 228 194 154 176 185 163 122 108 107 100 86 76 66 71 63 37 27 32 46 50 49 42 39 41 46
83 71 95 119 135 142 109 53 329 324 188 164 175 230 194 172 168 166 204 184 166 180 175 184 185 204 209 214 194 185 185 184 190 208 195 150 184 209 196 226 238 216 230 223 215 226 251 261 294 19 26 24 46 11 351 335 331 318 356 12 28 59 63 56 57 47 30 15 269 157 139 133 122 106 90 83 71 53 37 36 44 45 40 47 52 55 55
33 166 162 175 164 162 178 183 178 2 322 194 145 202 268 198 161 172 177 161 153 180 194 187 158 170 226 269 256 162 163 182 191 200 187 188 202 198 197 228 205 198 216 207 221 220 243 244 209 113 86 2 350 346 340 324 308 28 55 51 59 72 70 66 52 32 6 0 16 127 142 147 144 138 121 98 90 87 69 55 51 57 57 53 51 47 54
336 12 66 37 15 331 176 144 170 207 249 273 157 224 267 280 175 148 125 139 156 173 193 172 176 180 249 245 262 249 206 180 188 198 203 221 208 167 167 186 180 200 190 187 216 219 227 189 159 159 140 89 330 330 335 311 284 92 83 96 95 96 95 77 34 39 38 38 48 52 80 120 144 151 144 131 125 125 114 93 90 88 85 76 69 60 54
338 319 195 160 186 257 276 210 184 190 198 227 194 205 248 276 173 155 166 189 198 197 211 172 186 191 206 215 230 262 249 185 196 192 177 198 66 54 120 149 168 178 176 190 214 232 189 134 134 142 129 69 2 3 351 313 278 146 162 155 150 145 146 160 150 103 62 57 77 86 86 83 83 83 101 121 125 121 132 146 138 107 90 81 77 81 76
337 302 302 167 189 216 241 234 221 222 214 193 190 196 211 252 258 197 177 195 215 207 206 196 185 193 205 204 212 204 172 159 150 133 129 156 142 168 170 142 157 167 186 198 247 218 143 143 152 137 84 2 6 349 315 306 271 197 192 203 200 192 187 174 157 118 85 77 86 82 74 77 87 90 91 87 95 96 81 71 66 70 77 79 73 72 75
242 266 244 195 196 204 214 233 245 258 179 136 159 203 205 212 241 233 196 196 209 217 194 187 195 203 198 196 180 172 189 200 182 145 156 165 175 195 176 153 164 170 168 151 353 133 139 141 140 136 96 322 330 317 297 291 286 231 216 204 191 191 221 268 160 164 124 105 107 97 95 86 82 81 85 86 87 88 87 88 87 84 86 86 78 69 68
259 274 306 280 205 204 217 225 220 225 201 158 180 221 233 267 273 251 216 200 206 211 201 192 195 205 197 181 170 184 211 219 125 104 111 102 109 120 137 136 142 143 138 117 129 152 165 153 145 124 328 300 293 278 268 264 269 242 226 224 210 184 200 208 187 171 137 122 123 123 117 110 104 101 100 95 88 84 90 100 103 102 102 95 91 88 77
202 262 287 300 290 252 239 248 246 241 219 215 204 171 182 209 242 269 280 247 220 214 210 200 197 202 192 178 180 187 174 143 153 193 170 136 138 137 141 150 164 148 140 134 138 183 171 168 160 192 246 267 284 272 267 253 239 209 158 106 86 66 58 83 158 172 143 130 118 104 105 103 107 110 113 115 115 120 119 107 100 99 99 107 110 119 110
193 207 227 248 267 256 212 207 218 242 233 206 216 168 160 185 211 231 262 298 299 254 224 212 208 205 192 178 171 186 215 171 146 181 196 159 154 161 171 173 176 177 166 167 185 207 221 218 191 215 244 275 286 290 272 116 98 99 110 115 120 98 96 94 90 93 101 111 111 117 119 116 111 109 106 106 115 120 115 113 116 116 123 129 136 111 76
266 143 144 357 35 13 8 344 286 239 222 185 161 129 109 90 354 260 252 256 291 17 359 331 298 247 198 183 180 185 171 140 128 139 147 159 155 160 164 171 181 186 189 194 191 217 221 223 236 244 258 274 294 307 69 73 81 97 108 118 122 127 120 107 98 96 98 103 111 116 119 118 115 106 105 106 109 108 106 111 120 141 155 148 114 102 109
195 234 239 207 184 207 205 201 252 299 261 182 176 172 169 194 210 209 215 214 214 275 287 312 321 328 332 298 212 181 165 157 149 144 134 146 157 162 166 173 179 186 197 208 202 203 213 212 223 232 248 259 271 137 114 121 113 110 113 121 129 135 125 95 83 95 117 124 125 123 120 116 113 110 113 117 118 117 128 136 149 145 113 93 107 113 105
236 212 202 188 205 232 234 239 267 333 8 131 119 59 212 210 206 210 177 158 168 189 185 154 312 296 65 66 9 334 294 175 147 154 149 143 148 158 166 165 172 189 198 209 209 197 201 204 207 219 226 202 183 175 138 115 122 137 128 140 122 109 109 119 115 119 117 124 128 133 136 134 129 129 143 147 133 130 129 122 116 101 122 118 108 108 113